Regional Weather Roundup
Issued by NWS

Home | Current Version | Previous Version | Text Only | Print | Product List | Glossary On
Versions: 1 2 3 4 5 6 7 8 9 10 11 12 13 14 15 16 17 18 19 20 21 22 23 24 25 26 27 28 29 30 31 32 33 34 35 36 37 38 39 40 41 42 43 44 45 46 47 48 49 50
000
ASCA44 KEWX 212020
RWRMX

LATIN AMERICA AND CARIBBEAN REGIONAL WEATHER ROUNDUP
NATIONAL WEATHER SERVICE AUSTIN/SAN ANTONIO TX
300 PM CDT SAT APR 21 2018

NOTE: "FAIR" INDICATED FEW OR NO CLOUDS BELOW 12,000 FEET WITH NO
SIGNIFICANT WEATHER AND/OR OBSTRUCTIONS TO VISIBILITY.

BAJA CALIFORNIA

CITY           SKY/WX    TMP DP  RH WIND       PRES   REMARKS
LORETO         PTSUNNY   75  59  57 NE12      29.94S
LA PAZ         PTSUNNY   75  46  35 N12       29.96
MEXICALI       PTSUNNY   88  28  11 S7        29.99
S.J. DEL CABO  PTSUNNY   82  46  28 SE14      29.93F
TIJUANA        PTSUNNY   72  50  46 W15       30.04F

NORTHWESTERN MEXICO

CITY           SKY/WX    TMP DP  RH WIND       PRES   REMARKS
CULIACAN       MOSUNNY   91  48  22 W8        29.88
DURANGO        MOSUNNY   82  21  10 NE3       30.12
GUAYMAS        MOSUNNY   79  52  38 S12       29.86
HERMOSILLO     PTSUNNY   91  16   6 S5        29.93
CD. JUAREZ     MOSUNNY   70  23  17 NW12      30.09
LOS MOCHIS     PTSUNNY   82  48  30 W10       29.92F
OBREGON        PTSUNNY   88  30  12 SW7       29.87

NORTHEASTERN MEXICO

CITY           SKY/WX    TMP DP  RH WIND       PRES   REMARKS
CHIHUAHUA      MOSUNNY   75  25  15 N14       30.08
MATAMOROS      PTSUNNY   82  72  69 SE15      29.88
MONCLOVA         N/A    N/A N/A N/A MISG        N/A
SALTILLO       SUNNY     82  50  32 CALM      30.12S
CD. VICTORIA   SUNNY     91  57  31 MISG      29.82  HX  90

WESTERN MEXICO

CITY           SKY/WX    TMP DP  RH WIND       PRES   REMARKS
AGUASCALIENTES MOSUNNY   86  19   8 W5        30.15F
COLIMA         MOSUNNY   86  61  42 SW12      30.00F
DEL BAJIO      MOSUNNY   84  45  24 NW8       30.18F
GUADALAJARA    SUNNY     88  41  19 S7        30.09
MANZANILLO     MOSUNNY   84  75  74 SW12      29.88  HX  92
MAZATLAN       PTSUNNY   84  59  42 W10       29.90S
P. VALLARTA    MOSUNNY   79  73  83 S12       29.87
URUAPAN        SUNNY     79  55  44 SE9       30.13
ZACATECAS      MOSUNNY   84  28  13 SW12      30.19F

CENTRAL MEXICO

CITY           SKY/WX    TMP DP  RH WIND       PRES   REMARKS
CUERNAVACA     SUNNY     90  52  27 E8        30.01F
MEXICO CITY    MOSUNNY   81  34  18 NW5       30.23F
MORELIA        PTSUNNY   84  45  24 N5        30.14
POZA RICA      PTSUNNY   86  68  54 S6        29.88F
PUEBLA         SUNNY     79  41  25 SW12      30.23F
QUERETARO      MOSUNNY   84  46  26 NW21      30.18F
S. LUIS POTOSI MOSUNNY   88  12   6 NW5G23    30.10
TAMPICO        MOSUNNY   84  72  65 MISG      29.83F
TOLUCA         PTSUNNY   75  39  27 W5        30.30F

SOUTHERN MEXICO

CITY           SKY/WX    TMP DP  RH WIND       PRES   REMARKS
ACAPULCO       SUNNY     86  75  70 W12       29.82F HX  95
B. DE HUATULCO   N/A    N/A N/A N/A MISG        N/A
OAXACA         MOSUNNY   86  32  14 NE3       30.09F
VERACRUZ       MOSUNNY   86  72  62 E15       29.84F HX  92
ZIHUATANEJO    SUNNY     90  77  66 SW14      29.84F HX 102

YUCATAN PENINSULA

CITY           SKY/WX    TMP DP  RH WIND       PRES   REMARKS
CAMPECHE       MOSUNNY   95  66  38 SE9       29.84F HX  98
CANCUN         PTSUNNY   86  73  66 E10       29.98F HX  93
CHETUMAL       MOSUNNY   88  73  62 SE20      29.93  HX  96
CD. DEL CARMEN MOSUNNY   90  68  48 E7        29.87  HX  93
COZUMEL        PTSUNNY   88  73  62 SE13      29.96F HX  96
MERIDA         PTSUNNY   99  75  47 E13       29.89F HX 111
MINATITLAN     MOSUNNY   84  70  61 N12       29.83
TAPACHULA      MOSUNNY   77  72  83 W12       29.80F
TUX. GUTIERREZ SUNNY     95  55  26 NE8       29.83F HX  93
VILLAHERMOSA   MOSUNNY   93  66  40 E7        29.86F HX  96

CENTRAL AMERICA

CITY           SKY/WX    TMP DP  RH WIND       PRES   REMARKS
BELIZE CITY    PTSUNNY   84  77  79 E8        29.92F HX  94
MANAGUA        PTCLDY    97  70  41 NE12      29.74F HX 103

CARIBBEAN

CITY           SKY/WX    TMP DP  RH WIND       PRES   REMARKS
ARUBA          MOSUNNY   86  77  74 E24       29.83F HX  97
CURACAO          N/A     84  70  61 E16       29.86F
KINGSTON       MOSUNNY   84  75  74 SE23      29.89S HX  92
NASSAU         PTSUNNY   81  72  74 E9        30.07F
SAN JUAN       PTSUNNY   81  73  78 E17       29.99F
SANTO DOMINGO  MOSUNNY   84  73  70 S9        29.94S HX  91
ST. KITTS      MOSUNNY   82  70  65 E14       29.97F
ST. MAARTEN    MOSUNNY   82  68  61 E15       30.00S
ST. THOMAS     MOSUNNY   84  72  65 SE16      30.00

$$





USA.gov is the U.S. government's official web portal to all federal, state and local government web resources and services.